SCP
0 0 0 0 0 0 0 0 0 0 0 0 0 0 0 0 0 0 0 0 0 0 0 0 0 0 0 0 0 0 0 0 0 0 0 0 0 0 0 0 -0 -0 -0 0 0 0 0 0 0 0 0 0 0 0
0 0 0 0 0 0 0 0 0 0 0 0 0 0 0 0 0 0 0 0 0 0 0 0 0 0 0 0 0 0 0 0 0 0 0 0 0 0 0 0 0 0 -0 -0 -0 0 0 0 0 0 0 0 0 0
0 0 0 0 0 0 0 0 0 0 0 0 0 0 0 0 0 0 0 0 0 0 0 0 0 0 0 0 0 0 0 0 0 0 0 0 0 0 0 0 0 0 0 0 0 0 0 0 0 0 0 0 0 0
0 0 0 0 0 0 0 0 0 0 0 0 0 0 0 0 0 0 0 0 0 0 0 0 0 0 0 0 0 0 0 0 0 0 0 0 0 0 0 0 0 0 0 0 0 0 -0 -0 -0 -0 -0 -0 -0 -0
0 0 0 0 0 0 0 0 0 0 0 0 0 0 0 0 0 0 0 0 0 0 0 0 -0 0 0 0 0 0 0 0 0 0 0 0 0 0 0 0 0 0 0 0 0 0 0 0 0 0 0 0 0 0
0 0 0 0 0 0 0 0 0 0 0 0 0 0 0 0 0 0 0 0 0 0 0 -0 -0 -0 -0 0 0 0 0 0 0 0 0 0 0 0 0 0 0 0 0 0 0 0 0 0 -0 -0 0 0 0 0
0 0 0 0 0 0 0 0 0 0 0 0 0 0 0 0 0 0 0 0 0 0 0 -0 0 0 0 0 0 0 0 0 0 0 0 0 0 0 0 0 0 0 0 0 0 -0 -0 0 0 0 0 -0 -0 0
0 0 0 0 0 0 0 0 0 0 0 0 0 0 0 0 0 0 0 0 0 0 0 0 0 0 0 0 0 0 0 0 0 0 0 -0 -0 0 -0 -0 0 -0 -0 0 0 0 0 -0 -0 0 0 0 0 0
0 0 0 0 0 0 0 0 0 0 0 0 0 0 0 0 0 0 0 0 0 0 0 0 0 0 0 0 0 0 0 0 0 0 0 0 0 -0 -0 -0 -0 -0 -0 0 -0 0 0 0 0 0 0 0 0 0
0 0 0 0 0 0 0 0 0 0 0 0 0 0 0 0 0 0 0 0 0 0 0 0 0 0 0 0 0 0 0 0 0 0 0 0 0 -0 0 -0 -0 -0 -0 -0 -0 0 0 0 -0 0 -0 -0 -0 -0
0 0 0 0 0 0 0 0 0 0 0 0 0 0 0 0 0 0 0 0 0 0 0 0 0 0 0 0 0 0 0 0 0 0 0 0 0 0 0 0 -0 -0 -0 -0 -0 0 0 0 0 0 0 0 0 0
0 0 0 0 0 0 0 0 0 0 0 0 0 0 0 0 0 0 0 0 0 0 0 0 0 0 0 0 0 0 0 0 0 0 0 0 0 0 0 0 -0 -0 -0 0 0 0 0 0 0 0 0 0 0 0
0 0 0 0 0 0 0 0 0 0 0 0 0 0 0 0 0 0 0 0 0 0 0 0 0 0 0 0 0 0 0 0 0 0 0 0 0 0 0 -0 -0 -0 -0 -0 -0 -0 -0 0 0 0 0 0 0 0
0 0 0 0 0 0 0 0 0 0 0 0 0 0 0 0 0 0 0 0 0 0 0 0 0 0 0 0 0 0 0 0 0 0 0 0 0 0 0 -0 -0 -0 -0 -0 -0 -0 -0 0 0 0 0 0 0 0
0 0 0 0 0 0 0 0 0 0 0 0 0 0 0 0 0 0 0 0 0 0 0 0 0 0 0 0 0 0 0 0 0 0 0 0 0 0 0 -0 -0 -0 -0 -0 0 0 0 0 0 0 0 0 0 0
0 0 0 0 0 0 0 0 0 0 0 0 0 0 0 0 0 0 0 0 0 0 0 0 0 0 0 0 0 0 0 0 0 0 0 0 0 0 0 0 0 0 0 0 0 0 0 0 0 0 0 0 0 0
0 0 0 0 0 0 0 0 0 0 0 0 0 0 0 0 0 0 0 0 0 0 0 0 0 0 0 0 0 0 0 0 0 0 0 0 0 0 0 0 0 0 0 0 0 0 0 0 0 0 0 0 0 0
0 0 0 0 0 0 0 0 0 0 0 0 0 0 0 0 0 0 0 0 0 0 0 0 0 0 0 0 0 0 0 0 0 0 0 0 0 0 0 0 0 0 -0 -0 0 0 0 0 0 0 0 0 0 0
0 0 0 0 0 0 0 0 0 0 0 0 0 0 0 0 0 0 0 0 0 0 0 0 0 0 0 0 0 0 0 0 0 0 0 0 0 0 0 0 0 0 0 0 0 0 0 0 0 0 0 0 0 0
0 0 0 0 0 0 0 0 0 0 0 0 0 0 0 0 0 0 0 0 0 0 0 0 0 0 0 0 0 0 0 0 0 0 0 0 0 0 0 0 -0 -0 0 0 0 0 0 0 0 0 0 0 0 0
0 0 0 0 0 0 0 0 0 0 0 0 0 0 0 0 0 0 0 0 0 0 0 0 0 0 0 0 0 0 0 0 0 0 0 0 0 0 -0 -0 -0 -0 -0 -0 0 0 0 0 0 0 0 0 0 0
0 0 0 0 0 0 0 0 0 0 0 0 0 0 0 0 0 0 0 0 0 0 0 0 0 0 0 0 0 0 0 0 0 0 0 0 0 0 -0 -0 -0 -0 0 0 0 0 0 0 0 0 0 0 0 0
0 0 0 0 0 0 0 0 0 0 0 0 0 0 0 0 0 0 0 0 0 0 0 0 0 0 0 0 0 0 0 0 0 0 0 0 0 0 0 0 0 0 0 0 0 0 0 0 0 0 0 0 0 0
0 0 0 0 0 0 0 0 0 0 0 0 0 0 0 0 0 0 0 0 0 0 0 0 0 0 0 0 0 0 0 0 0 0 0 0 0 0 0 0 0 0 0 0 0 0 0 0 0 0 0 0 0 0
0 0 0 0 0 0 0 0 0 0 0 0 0 0 0 0 0 0 0 0 0 0 0 0 0 0 0 0 0 0 0 0 0 0 0 0 0 0 0 0 0 0 0 0 0 0 0 0 0 0 0 0 0 0
0 0 0 0 0 0 0 0 0 0 0 0 0 0 0 0 0 0 0 0 0 0 0 0 0 0 0 0 0 0 0 0 0 0 0 0 0 0 0 0 0 0 0 0 0 0 0 0 0 0 0 0 0 0
0 0 0 0 0 0 0 0 0 0 0 0 0 0 0 0 0 0 0 0 0 0 0 0 0 0 0 0 0 0 0 0 0 0 0 0 0 0 0 0 0 0 0 0 0 0 0 0 0 0 0 0 0 0
0 0 0 0 0 0 0 0 0 0 0 0 0 0 0 0 0 0 0 0 0 0 0 0 0 0 0 0 0 0 0 0 0 0 0 0 0 0 0 0 0 0 0 0 0 0 0 0 0 0 0 0 0 0
0 0 0 0 0 0 0 0 0 0 0 0 0 0 0 0 0 0 0 0 0 0 0 0 0 0 0 0 0 0 0 0 0 0 0 0 0 0 0 0 0 0 0 0 0 0 0 0 0 0 0 0 0 0
0 0 0 0 0 0 0 0 0 0 0 0 0 0 0 0 0 0 0 0 0 0 0 0 0 0 0 0 0 0 0 0 0 0 0 0 0 0 0 0 0 0 0 0 0 0 0 0 0 0 0 0 0 0
0 0 0 0 0 0 0 0 0 0 0 0 0 0 0 0 0 0 0 0 0 0 0 0 0 0 0 0 0 0 0 0 0 0 0 0 0 0 0 0 0 0 0 0 0 0 0 0 0 0 0 0 0 0
0 0 0 0 0 0 0 0 0 0 0 0 0 0 0 0 0 0 0 0 0 0 0 0 0 0 0 0 0 0 0 0 0 0 0 0 0 0 0 0 0 0 0 0 0 0 0 0 0 0 0 0 0 0
0 0 0 0 0 0 0 0 0 0 0 0 0 0 0 0 0 0 0 0 0 0 0 0 0 0 0 0 0 0 0 0 0 0 0 0 0 0 0 0 0 0 0 0 0 0 0 0 0 0 0 0 0 0
Wind_Speed_500mb
56 52 49 45 46 48 50 56 52 50 53 48 40 31 28 24 20 19 17 16 17 13 37 42 33 25 15 10 7 5 5 2 2 1 6 6 5 7 3 7 7 10 8 5 4 7 12 14 2 9 8 15 40 46
63 59 56 52 47 49 51 51 54 51 48 47 43 37 32 30 27 25 25 18 18 22 31 46 49 44 36 32 18 12 4 4 7 3 2 4 3 3 7 5 3 4 11 8 14 11 12 26 3 11 21 34 35 35
73 65 61 60 53 50 50 52 52 52 50 49 48 45 41 38 34 31 26 23 25 28 41 25 14 23 25 39 40 15 12 13 7 5 1 2 8 6 7 9 3 8 15 6 6 12 22 23 19 19 18 28 38 37
82 76 67 63 61 54 50 50 51 51 52 53 52 51 48 45 40 36 29 26 23 12 8 9 12 16 16 17 29 40 27 12 10 2 5 5 5 12 6 8 9 14 12 12 9 15 11 32 42 52 39 27 37 40
87 84 76 69 65 61 55 51 49 49 46 47 47 49 46 41 36 32 32 30 27 20 7 20 37 30 17 11 8 12 27 24 10 7 4 6 8 1 6 4 9 25 14 17 15 28 26 11 16 53 45 49 55 54
92 90 85 77 70 66 61 55 49 48 45 39 36 35 31 32 29 23 15 34 42 32 7 6 8 8 6 14 15 18 16 17 15 9 8 10 9 5 2 6 19 40 36 54 12 20 27 9 11 16 16 35 54 55
99 95 92 86 78 71 66 59 52 48 46 40 36 33 25 23 30 20 7 6 19 32 9 9 6 6 14 12 10 13 15 9 11 8 9 6 8 8 4 7 20 27 44 48 53 44 29 29 18 27 29 23 21 29
106 101 96 94 88 80 71 64 57 50 46 41 37 27 25 20 24 30 24 18 28 16 9 4 7 3 22 11 9 12 9 13 11 7 5 6 5 9 12 36 36 19 15 25 41 50 57 38 29 34 39 34 31 33
112 106 101 97 95 89 79 69 60 53 49 42 32 23 22 24 17 17 25 30 33 18 8 10 7 7 26 12 9 15 10 5 7 6 6 4 4 13 24 31 47 49 40 16 21 46 41 53 58 51 44 41 44 45
131 113 104 100 96 95 86 76 69 60 55 45 41 21 16 18 21 16 15 19 21 19 17 10 16 7 21 16 11 11 5 5 5 7 7 3 9 72 74 63 55 32 27 42 35 31 41 54 52 53 58 56 57 56
138 128 108 100 97 94 87 83 78 70 62 67 30 18 20 32 25 13 10 13 17 10 20 17 39 12 21 8 6 16 6 3 4 8 6 6 8 13 28 26 50 66 60 46 39 35 28 27 25 26 35 42 47 49
138 135 129 105 101 97 96 93 91 91 72 61 32 32 32 16 10 8 9 4 10 11 15 19 18 18 21 14 7 10 8 2 10 8 5 7 11 42 17 18 23 27 33 42 46 42 38 40 36 34 36 38 34 33
141 135 134 114 106 101 102 101 101 103 90 52 18 18 18 16 7 17 20 9 7 17 27 28 10 20 16 13 9 5 7 11 17 3 8 12 26 17 18 28 28 32 30 27 25 22 22 26 31 39 45 46 43 46
147 141 136 134 109 108 108 112 118 115 78 24 26 14 16 14 14 12 14 13 22 25 56 54 17 10 10 8 7 10 6 6 3 4 15 7 30 24 27 29 33 34 31 27 23 21 19 20 23 28 32 36 44 53
151 142 139 138 122 113 113 121 138 129 44 23 22 16 21 20 14 32 30 32 24 60 70 28 11 10 5 7 3 8 6 9 12 11 7 16 6 5 21 30 33 31 27 25 23 24 21 21 27 34 38 40 43 48
136 138 139 139 130 117 123 130 140 110 41 32 28 12 10 22 1 26 39 29 52 68 46 13 8 7 9 9 8 19 17 15 9 8 22 13 12 2 11 13 12 11 10 11 12 13 18 24 30 41 47 45 46 49
99 130 134 140 138 125 131 115 94 44 41 25 20 53 52 38 47 42 47 58 72 64 9 10 16 18 7 5 7 10 12 7 15 26 4 8 18 19 10 10 9 9 11 17 27 33 33 43 52 51 49 49 51 51
65 116 124 146 147 132 149 76 50 38 23 42 35 57 71 48 54 50 39 76 53 32 28 14 18 9 14 17 8 9 42 46 33 27 16 21 24 19 22 23 24 28 31 37 42 48 53 53 48 45 56 55 53 60
73 61 125 144 157 107 70 48 64 18 37 38 49 61 67 75 70 63 73 86 65 71 26 24 12 12 10 11 14 21 24 23 19 22 27 27 27 36 46 55 58 55 52 53 48 48 51 53 58 63 64 62 66 65
50 64 69 157 176 51 31 23 84 39 16 50 55 60 58 64 72 78 73 87 70 35 12 11 11 19 28 48 62 70 62 53 47 62 73 77 77 65 49 44 46 43 47 52 58 56 54 59 63 63 67 69 71 65
36 66 53 131 116 53 33 35 25 63 25 30 68 61 31 56 54 59 45 67 37 20 13 40 57 59 50 40 30 38 50 54 61 62 66 76 84 66 55 62 62 61 57 52 57 56 54 59 60 59 63 59 54 46
31 49 33 99 43 33 24 41 40 45 53 31 49 57 16 18 24 49 58 38 43 78 56 85 73 74 78 72 67 69 71 68 73 86 94 88 61 74 76 71 65 69 64 65 65 61 58 55 56 53 48 40 34 28
21 36 33 33 25 28 16 71 28 45 19 24 38 17 8 10 33 50 15 27 59 78 80 60 65 91 92 86 77 77 78 83 94 104 95 83 81 77 78 82 85 81 74 68 59 55 53 49 43 37 30 27 25 26
27 18 15 12 20 14 35 13 32 23 9 18 23 19 17 9 42 13 12 23 57 63 71 78 72 65 60 64 75 85 92 90 97 86 76 76 80 88 84 75 67 63 61 58 52 47 40 31 26 22 20 22 26 29
17 20 13 12 6 9 14 21 12 11 10 18 23 9 8 19 8 10 9 10 55 66 69 70 75 82 80 87 89 96 82 68 73 76 78 74 74 74 74 71 64 59 54 49 43 36 29 23 19 19 24 29 34 35
10 12 11 7 4 7 11 20 24 29 11 22 9 10 11 9 11 10 9 32 38 62 72 86 92 94 97 96 87 76 63 54 52 61 67 60 59 59 61 61 57 54 47 42 36 29 25 23 24 28 33 35 35 37
7 8 10 11 3 5 2 6 14 29 27 14 12 10 10 14 11 4 8 17 27 55 65 79 77 74 67 61 64 65 56 52 57 60 57 55 52 50 48 46 46 42 38 31 29 27 25 29 34 37 40 40 36 32
8 19 8 8 2 2 6 3 10 20 8 13 18 13 25 17 7 6 5 4 18 25 42 59 66 72 72 66 58 48 46 43 42 42 41 38 37 35 34 33 31 27 27 25 25 27 30 34 40 42 41 40 37 32
9 31 23 8 7 11 9 10 10 8 25 12 12 7 7 13 16 13 12 9 7 13 24 29 36 41 44 44 44 45 41 37 36 37 36 32 27 27 27 20 17 21 26 32 34 32 37 42 44 43 40 34 29 23
11 39 9 11 11 10 13 21 12 25 35 28 30 35 33 34 50 36 29 22 16 18 12 6 8 13 17 19 22 25 27 28 30 34 31 27 25 20 21 21 26 33 40 45 51 53 50 49 47 42 35 29 22 16
41 20 12 9 7 7 10 23 44 61 45 45 51 45 31 26 43 68 59 45 36 25 16 15 13 9 5 3 4 7 10 14 16 17 15 16 17 22 29 36 41 45 47 50 55 55 51 45 38 33 27 22 19 16
21 13 13 10 6 14 14 14 24 28 25 33 28 24 15 16 16 29 64 50 42 39 36 27 20 17 12 8 7 5 2 4 10 11 12 16 27 37 42 45 50 53 56 55 51 45 38 32 29 25 23 22 19 17
14 24 14 7 10 10 21 10 10 9 20 11 23 27 25 14 11 33 39 50 40 38 34 28 23 17 12 8 6 5 6 10 12 15 21 31 40 49 54 56 57 54 51 47 40 34 28 23 22 23 21 18 17 18
Wind_Direction_500mb
243 243 244 242 237 231 226 224 224 227 230 236 240 238 237 245 253 262 268 268 274 263 281 272 265 253 245 223 153 211 8 350 47 147 121 227 138 229 70 256 193 176 134 223 81 62 280 202 97 163 199 121 126 130
241 240 239 242 238 232 229 228 228 228 230 233 236 239 240 244 249 258 267 274 277 267 273 284 278 267 259 251 258 213 208 165 242 66 350 74 309 46 172 271 280 245 190 185 183 216 239 192 170 177 155 147 151 155
239 239 239 236 239 236 230 230 228 228 229 232 236 238 242 247 250 255 263 267 277 286 294 274 270 268 263 243 233 235 220 210 198 165 205 231 249 147 210 242 209 256 203 200 77 251 230 214 211 218 205 188 186 188
237 236 236 236 234 235 231 228 228 227 227 232 236 240 243 246 248 251 246 257 257 268 279 289 282 291 280 244 225 222 234 199 160 163 228 244 240 204 239 242 207 204 146 183 263 270 269 240 234 232 225 214 211 205
236 234 233 234 233 231 231 230 228 223 228 229 237 240 242 244 244 240 238 240 233 219 255 293 294 287 248 205 199 207 223 223 201 195 211 230 242 307 279 295 233 186 192 191 211 207 184 172 202 227 220 217 217 218
235 234 231 230 231 230 227 227 226 219 220 222 225 237 237 234 224 225 245 246 230 220 243 292 292 255 220 223 232 236 226 214 205 204 232 244 242 247 342 251 250 216 215 210 209 209 203 177 184 192 200 228 232 234
233 232 230 227 227 228 225 223 223 216 213 213 215 223 218 210 201 195 234 178 163 172 221 276 280 232 199 210 210 213 206 202 196 213 235 255 213 229 220 245 256 228 232 230 229 230 248 231 223 235 247 251 247 231
231 231 230 226 224 223 222 218 218 211 206 205 209 200 192 195 208 222 226 174 170 198 228 247 269 228 179 187 202 201 204 208 214 245 243 218 242 233 253 238 240 243 239 234 231 232 240 250 247 251 253 252 249 238
231 229 228 227 223 221 217 211 210 203 198 195 175 175 167 195 211 231 213 203 200 216 251 209 179 227 168 158 180 177 206 189 235 220 226 163 269 228 229 236 239 236 226 220 226 229 237 242 246 248 249 247 247 250
228 229 226 226 223 218 213 205 201 193 187 174 170 169 193 188 197 164 162 187 207 215 225 247 198 175 162 164 157 158 207 225 226 238 164 192 253 253 252 248 249 238 229 227 230 231 226 237 241 245 249 255 258 261
231 224 224 220 220 214 208 201 194 188 176 175 175 184 168 156 165 175 176 191 190 235 217 218 196 138 178 134 173 199 174 174 256 260 149 273 269 245 241 232 235 241 237 235 240 252 253 255 256 256 256 260 262 263
228 224 219 218 214 209 206 200 193 185 175 185 170 146 145 183 175 158 194 206 218 228 201 161 183 154 157 162 155 177 173 133 238 145 70 265 252 250 227 188 177 188 208 225 235 245 250 253 257 264 264 261 265 270
225 219 220 213 212 207 202 199 195 187 179 155 170 148 165 171 195 197 185 209 217 197 178 157 148 158 146 165 114 130 133 205 126 73 234 235 264 270 222 202 188 184 186 190 198 217 234 249 254 258 265 265 268 266
224 217 216 213 208 205 200 196 191 184 169 173 157 176 204 187 224 185 189 187 188 162 151 151 127 146 136 133 147 120 245 92 82 261 235 248 267 280 239 217 211 205 202 202 203 211 224 245 261 269 272 274 270 272
217 215 212 211 203 201 197 193 190 181 173 161 171 214 209 205 183 193 171 136 142 154 146 138 101 145 149 113 147 107 70 235 217 231 230 238 330 302 219 218 219 224 234 246 251 250 255 269 282 287 284 284 282 281
213 211 204 205 199 197 192 189 185 180 189 183 208 200 132 159 120 163 170 146 156 152 147 142 130 137 218 151 128 210 154 215 235 217 245 265 282 71 120 164 185 205 234 249 260 282 294 296 296 292 288 287 289 288
211 202 201 200 197 190 190 177 179 188 182 199 214 207 191 179 182 177 176 174 166 155 170 149 171 201 109 105 237 194 209 221 219 215 197 124 110 105 89 34 348 306 293 294 297 294 296 295 285 278 285 292 291 291
214 204 199 197 192 183 184 181 182 192 196 216 208 200 194 201 189 184 177 168 159 191 163 199 139 181 190 177 227 224 229 238 244 253 248 255 286 288 297 308 306 300 296 297 301 303 301 287 283 292 298 287 283 289
230 209 199 196 185 176 185 186 187 185 219 211 201 197 192 201 209 208 197 189 188 183 176 170 212 191 192 205 206 230 243 253 263 274 279 275 276 283 287 290 292 295 292 294 289 292 294 286 284 288 289 284 287 283
228 199 188 193 182 177 181 180 188 199 204 211 200 193 188 192 194 203 199 182 184 179 207 212 201 191 185 205 221 236 246 260 271 284 282 282 284 287 283 286 288 292 290 289 292 290 281 276 281 283 280 278 275 273
230 230 219 189 186 187 179 158 163 198 191 183 194 179 177 182 180 184 179 174 188 210 221 215 227 231 231 230 229 237 242 244 249 258 268 276 281 286 290 296 299 298 295 294 292 288 281 283 286 279 278 276 272 270
236 230 232 198 193 190 194 176 164 177 192 179 164 176 139 185 183 192 177 191 220 218 229 228 233 238 245 244 244 243 244 248 254 258 262 269 276 284 290 296 298 297 293 292 293 290 290 286 283 283 280 272 262 248
221 211 221 209 205 181 158 166 166 171 172 180 166 147 163 165 174 158 186 221 224 223 223 224 225 229 236 245 248 248 248 249 254 257 262 268 273 280 282 283 289 292 291 294 292 287 285 285 282 276 265 248 227 210
227 201 218 238 179 174 152 158 165 168 135 159 174 177 167 132 148 175 214 219 219 217 218 221 222 228 233 238 243 247 250 251 255 258 261 266 270 275 282 285 286 287 287 288 287 286 283 276 267 253 233 209 197 193
224 187 218 250 255 146 157 150 146 140 145 175 169 132 156 147 145 178 206 212 205 209 213 215 219 225 230 238 244 250 254 250 254 260 265 267 272 272 275 278 280 281 281 281 282 279 271 256 234 206 192 189 188 183
202 203 202 223 218 234 151 169 176 174 137 166 147 102 143 128 152 203 211 194 185 196 201 211 219 226 233 237 244 249 250 250 254 257 265 267 265 266 269 271 272 271 273 271 264 256 239 220 205 191 183 180 178 174
219 207 192 219 237 303 188 90 140 176 175 141 145 134 141 165 183 181 119 146 171 189 200 211 220 227 236 241 243 249 252 248 247 253 258 260 260 260 260 262 266 269 264 256 250 235 221 201 186 178 172 165 164 164
344 25 11 311 155 91 323 96 143 173 147 143 125 155 162 161 143 28 47 96 188 195 206 213 220 226 231 236 243 246 247 247 246 244 244 244 245 252 259 259 258 253 243 225 210 196 182 177 169 165 163 160 158 159
4 350 327 239 86 63 46 17 351 9 348 195 128 95 100 65 39 57 59 76 147 197 207 210 215 223 230 235 239 242 245 244 242 236 236 232 244 255 256 243 223 200 186 171 159 160 158 159 156 154 154 155 154 156
326 337 305 24 45 47 25 10 37 41 40 72 97 105 84 80 60 67 71 75 82 79 87 121 192 213 222 229 234 235 238 242 241 240 246 252 251 238 210 196 179 169 164 160 154 151 153 154 152 153 154 155 158 162
318 324 350 42 73 64 48 78 59 60 58 58 78 98 116 124 66 44 47 47 50 55 65 64 64 72 99 150 208 231 238 237 234 236 238 233 219 193 179 170 170 168 161 156 152 152 152 153 154 155 156 158 156 156
313 345 344 28 72 57 75 52 49 59 47 51 38 50 65 67 66 34 22 30 38 41 41 41 43 45 57 76 95 101 149 171 192 201 201 192 177 169 168 163 158 155 153 148 146 147 153 156 155 155 154 153 153 151
307 353 359 7 357 21 16 76 78 87 43 49 41 37 38 61 78 15 18 25 24 22 24 29 34 39 47 62 81 97 129 148 152 155 159 163 162 155 150 149 147 145 143 142 145 148 152 155 154 150 148 149 149 148
Wind_Speed_850mb
56 52 49 45 46 48 50 56 52 50 53 48 40 31 28 24 20 19 17 16 17 13 37 42 33 25 15 10 7 5 5 2 2 1 6 6 5 7 3 7 7 10 8 5 4 7 12 14 2 9 8 15 40 46
63 59 56 52 47 49 51 51 54 51 48 47 43 37 32 30 27 25 25 18 18 22 31 46 49 44 36 32 18 12 4 4 7 3 2 4 3 3 7 5 3 4 11 8 14 11 12 26 3 11 21 34 35 35
73 65 61 60 53 50 50 52 52 52 50 49 48 45 41 38 34 31 26 23 25 28 41 25 14 23 25 39 40 15 12 13 7 5 1 2 8 6 7 9 3 8 15 6 6 12 22 23 19 19 18 28 38 37
82 76 67 63 61 54 50 50 51 51 52 53 52 51 48 45 40 36 29 26 23 12 8 9 12 16 16 17 29 40 27 12 10 2 5 5 5 12 6 8 9 14 12 12 9 15 11 32 42 52 39 27 37 40
87 84 76 69 65 61 55 51 49 49 46 47 47 49 46 41 36 32 32 30 27 20 7 20 37 30 17 11 8 12 27 24 10 7 4 6 8 1 6 4 9 25 14 17 15 28 26 11 16 53 45 49 55 54
92 90 85 77 70 66 61 55 49 48 45 39 36 35 31 32 29 23 15 34 42 32 7 6 8 8 6 14 15 18 16 17 15 9 8 10 9 5 2 6 19 40 36 54 12 20 27 9 11 16 16 35 54 55
99 95 92 86 78 71 66 59 52 48 46 40 36 33 25 23 30 20 7 6 19 32 9 9 6 6 14 12 10 13 15 9 11 8 9 6 8 8 4 7 20 27 44 48 53 44 29 29 18 27 29 23 21 29
106 101 96 94 88 80 71 64 57 50 46 41 37 27 25 20 24 30 24 18 28 16 9 4 7 3 22 11 9 12 9 13 11 7 5 6 5 9 12 36 36 19 15 25 41 50 57 38 29 34 39 34 31 33
112 106 101 97 95 89 79 69 60 53 49 42 32 23 22 24 17 17 25 30 33 18 8 10 7 7 26 12 9 15 10 5 7 6 6 4 4 13 24 31 47 49 40 16 21 46 41 53 58 51 44 41 44 45
131 113 104 100 96 95 86 76 69 60 55 45 41 21 16 18 21 16 15 19 21 19 17 10 16 7 21 16 11 11 5 5 5 7 7 3 9 72 74 63 55 32 27 42 35 31 41 54 52 53 58 56 57 56
138 128 108 100 97 94 87 83 78 70 62 67 30 18 20 32 25 13 10 13 17 10 20 17 39 12 21 8 6 16 6 3 4 8 6 6 8 13 28 26 50 66 60 46 39 35 28 27 25 26 35 42 47 49
138 135 129 105 101 97 96 93 91 91 72 61 32 32 32 16 10 8 9 4 10 11 15 19 18 18 21 14 7 10 8 2 10 8 5 7 11 42 17 18 23 27 33 42 46 42 38 40 36 34 36 38 34 33
141 135 134 114 106 101 102 101 101 103 90 52 18 18 18 16 7 17 20 9 7 17 27 28 10 20 16 13 9 5 7 11 17 3 8 12 26 17 18 28 28 32 30 27 25 22 22 26 31 39 45 46 43 46
147 141 136 134 109 108 108 112 118 115 78 24 26 14 16 14 14 12 14 13 22 25 56 54 17 10 10 8 7 10 6 6 3 4 15 7 30 24 27 29 33 34 31 27 23 21 19 20 23 28 32 36 44 53
151 142 139 138 122 113 113 121 138 129 44 23 22 16 21 20 14 32 30 32 24 60 70 28 11 10 5 7 3 8 6 9 12 11 7 16 6 5 21 30 33 31 27 25 23 24 21 21 27 34 38 40 43 48
136 138 139 139 130 117 123 130 140 110 41 32 28 12 10 22 1 26 39 29 52 68 46 13 8 7 9 9 8 19 17 15 9 8 22 13 12 2 11 13 12 11 10 11 12 13 18 24 30 41 47 45 46 49
99 130 134 140 138 125 131 115 94 44 41 25 20 53 52 38 47 42 47 58 72 64 9 10 16 18 7 5 7 10 12 7 15 26 4 8 18 19 10 10 9 9 11 17 27 33 33 43 52 51 49 49 51 51
65 116 124 146 147 132 149 76 50 38 23 42 35 57 71 48 54 50 39 76 53 32 28 14 18 9 14 17 8 9 42 46 33 27 16 21 24 19 22 23 24 28 31 37 42 48 53 53 48 45 56 55 53 60
73 61 125 144 157 107 70 48 64 18 37 38 49 61 67 75 70 63 73 86 65 71 26 24 12 12 10 11 14 21 24 23 19 22 27 27 27 36 46 55 58 55 52 53 48 48 51 53 58 63 64 62 66 65
50 64 69 157 176 51 31 23 84 39 16 50 55 60 58 64 72 78 73 87 70 35 12 11 11 19 28 48 62 70 62 53 47 62 73 77 77 65 49 44 46 43 47 52 58 56 54 59 63 63 67 69 71 65
36 66 53 131 116 53 33 35 25 63 25 30 68 61 31 56 54 59 45 67 37 20 13 40 57 59 50 40 30 38 50 54 61 62 66 76 84 66 55 62 62 61 57 52 57 56 54 59 60 59 63 59 54 46
31 49 33 99 43 33 24 41 40 45 53 31 49 57 16 18 24 49 58 38 43 78 56 85 73 74 78 72 67 69 71 68 73 86 94 88 61 74 76 71 65 69 64 65 65 61 58 55 56 53 48 40 34 28
21 36 33 33 25 28 16 71 28 45 19 24 38 17 8 10 33 50 15 27 59 78 80 60 65 91 92 86 77 77 78 83 94 104 95 83 81 77 78 82 85 81 74 68 59 55 53 49 43 37 30 27 25 26
27 18 15 12 20 14 35 13 32 23 9 18 23 19 17 9 42 13 12 23 57 63 71 78 72 65 60 64 75 85 92 90 97 86 76 76 80 88 84 75 67 63 61 58 52 47 40 31 26 22 20 22 26 29
17 20 13 12 6 9 14 21 12 11 10 18 23 9 8 19 8 10 9 10 55 66 69 70 75 82 80 87 89 96 82 68 73 76 78 74 74 74 74 71 64 59 54 49 43 36 29 23 19 19 24 29 34 35
10 12 11 7 4 7 11 20 24 29 11 22 9 10 11 9 11 10 9 32 38 62 72 86 92 94 97 96 87 76 63 54 52 61 67 60 59 59 61 61 57 54 47 42 36 29 25 23 24 28 33 35 35 37
7 8 10 11 3 5 2 6 14 29 27 14 12 10 10 14 11 4 8 17 27 55 65 79 77 74 67 61 64 65 56 52 57 60 57 55 52 50 48 46 46 42 38 31 29 27 25 29 34 37 40 40 36 32
8 19 8 8 2 2 6 3 10 20 8 13 18 13 25 17 7 6 5 4 18 25 42 59 66 72 72 66 58 48 46 43 42 42 41 38 37 35 34 33 31 27 27 25 25 27 30 34 40 42 41 40 37 32
9 31 23 8 7 11 9 10 10 8 25 12 12 7 7 13 16 13 12 9 7 13 24 29 36 41 44 44 44 45 41 37 36 37 36 32 27 27 27 20 17 21 26 32 34 32 37 42 44 43 40 34 29 23
11 39 9 11 11 10 13 21 12 25 35 28 30 35 33 34 50 36 29 22 16 18 12 6 8 13 17 19 22 25 27 28 30 34 31 27 25 20 21 21 26 33 40 45 51 53 50 49 47 42 35 29 22 16
41 20 12 9 7 7 10 23 44 61 45 45 51 45 31 26 43 68 59 45 36 25 16 15 13 9 5 3 4 7 10 14 16 17 15 16 17 22 29 36 41 45 47 50 55 55 51 45 38 33 27 22 19 16
21 13 13 10 6 14 14 14 24 28 25 33 28 24 15 16 16 29 64 50 42 39 36 27 20 17 12 8 7 5 2 4 10 11 12 16 27 37 42 45 50 53 56 55 51 45 38 32 29 25 23 22 19 17
14 24 14 7 10 10 21 10 10 9 20 11 23 27 25 14 11 33 39 50 40 38 34 28 23 17 12 8 6 5 6 10 12 15 21 31 40 49 54 56 57 54 51 47 40 34 28 23 22 23 21 18 17 18
Wind_Direction_850mb
243 243 244 242 237 231 226 224 224 227 230 236 240 238 237 245 253 262 268 268 274 263 281 272 265 253 245 223 153 211 8 350 47 147 121 227 138 229 70 256 193 176 134 223 81 62 280 202 97 163 199 121 126 130
241 240 239 242 238 232 229 228 228 228 230 233 236 239 240 244 249 258 267 274 277 267 273 284 278 267 259 251 258 213 208 165 242 66 350 74 309 46 172 271 280 245 190 185 183 216 239 192 170 177 155 147 151 155
239 239 239 236 239 236 230 230 228 228 229 232 236 238 242 247 250 255 263 267 277 286 294 274 270 268 263 243 233 235 220 210 198 165 205 231 249 147 210 242 209 256 203 200 77 251 230 214 211 218 205 188 186 188
237 236 236 236 234 235 231 228 228 227 227 232 236 240 243 246 248 251 246 257 257 268 279 289 282 291 280 244 225 222 234 199 160 163 228 244 240 204 239 242 207 204 146 183 263 270 269 240 234 232 225 214 211 205
236 234 233 234 233 231 231 230 228 223 228 229 237 240 242 244 244 240 238 240 233 219 255 293 294 287 248 205 199 207 223 223 201 195 211 230 242 307 279 295 233 186 192 191 211 207 184 172 202 227 220 217 217 218
235 234 231 230 231 230 227 227 226 219 220 222 225 237 237 234 224 225 245 246 230 220 243 292 292 255 220 223 232 236 226 214 205 204 232 244 242 247 342 251 250 216 215 210 209 209 203 177 184 192 200 228 232 234
233 232 230 227 227 228 225 223 223 216 213 213 215 223 218 210 201 195 234 178 163 172 221 276 280 232 199 210 210 213 206 202 196 213 235 255 213 229 220 245 256 228 232 230 229 230 248 231 223 235 247 251 247 231
231 231 230 226 224 223 222 218 218 211 206 205 209 200 192 195 208 222 226 174 170 198 228 247 269 228 179 187 202 201 204 208 214 245 243 218 242 233 253 238 240 243 239 234 231 232 240 250 247 251 253 252 249 238
231 229 228 227 223 221 217 211 210 203 198 195 175 175 167 195 211 231 213 203 200 216 251 209 179 227 168 158 180 177 206 189 235 220 226 163 269 228 229 236 239 236 226 220 226 229 237 242 246 248 249 247 247 250
228 229 226 226 223 218 213 205 201 193 187 174 170 169 193 188 197 164 162 187 207 215 225 247 198 175 162 164 157 158 207 225 226 238 164 192 253 253 252 248 249 238 229 227 230 231 226 237 241 245 249 255 258 261
231 224 224 220 220 214 208 201 194 188 176 175 175 184 168 156 165 175 176 191 190 235 217 218 196 138 178 134 173 199 174 174 256 260 149 273 269 245 241 232 235 241 237 235 240 252 253 255 256 256 256 260 262 263
228 224 219 218 214 209 206 200 193 185 175 185 170 146 145 183 175 158 194 206 218 228 201 161 183 154 157 162 155 177 173 133 238 145 70 265 252 250 227 188 177 188 208 225 235 245 250 253 257 264 264 261 265 270
225 219 220 213 212 207 202 199 195 187 179 155 170 148 165 171 195 197 185 209 217 197 178 157 148 158 146 165 114 130 133 205 126 73 234 235 264 270 222 202 188 184 186 190 198 217 234 249 254 258 265 265 268 266
224 217 216 213 208 205 200 196 191 184 169 173 157 176 204 187 224 185 189 187 188 162 151 151 127 146 136 133 147 120 245 92 82 261 235 248 267 280 239 217 211 205 202 202 203 211 224 245 261 269 272 274 270 272
217 215 212 211 203 201 197 193 190 181 173 161 171 214 209 205 183 193 171 136 142 154 146 138 101 145 149 113 147 107 70 235 217 231 230 238 330 302 219 218 219 224 234 246 251 250 255 269 282 287 284 284 282 281
213 211 204 205 199 197 192 189 185 180 189 183 208 200 132 159 120 163 170 146 156 152 147 142 130 137 218 151 128 210 154 215 235 217 245 265 282 71 120 164 185 205 234 249 260 282 294 296 296 292 288 287 289 288
211 202 201 200 197 190 190 177 179 188 182 199 214 207 191 179 182 177 176 174 166 155 170 149 171 201 109 105 237 194 209 221 219 215 197 124 110 105 89 34 348 306 293 294 297 294 296 295 285 278 285 292 291 291
214 204 199 197 192 183 184 181 182 192 196 216 208 200 194 201 189 184 177 168 159 191 163 199 139 181 190 177 227 224 229 238 244 253 248 255 286 288 297 308 306 300 296 297 301 303 301 287 283 292 298 287 283 289
230 209 199 196 185 176 185 186 187 185 219 211 201 197 192 201 209 208 197 189 188 183 176 170 212 191 192 205 206 230 243 253 263 274 279 275 276 283 287 290 292 295 292 294 289 292 294 286 284 288 289 284 287 283
228 199 188 193 182 177 181 180 188 199 204 211 200 193 188 192 194 203 199 182 184 179 207 212 201 191 185 205 221 236 246 260 271 284 282 282 284 287 283 286 288 292 290 289 292 290 281 276 281 283 280 278 275 273
230 230 219 189 186 187 179 158 163 198 191 183 194 179 177 182 180 184 179 174 188 210 221 215 227 231 231 230 229 237 242 244 249 258 268 276 281 286 290 296 299 298 295 294 292 288 281 283 286 279 278 276 272 270
236 230 232 198 193 190 194 176 164 177 192 179 164 176 139 185 183 192 177 191 220 218 229 228 233 238 245 244 244 243 244 248 254 258 262 269 276 284 290 296 298 297 293 292 293 290 290 286 283 283 280 272 262 248
221 211 221 209 205 181 158 166 166 171 172 180 166 147 163 165 174 158 186 221 224 223 223 224 225 229 236 245 248 248 248 249 254 257 262 268 273 280 282 283 289 292 291 294 292 287 285 285 282 276 265 248 227 210
227 201 218 238 179 174 152 158 165 168 135 159 174 177 167 132 148 175 214 219 219 217 218 221 222 228 233 238 243 247 250 251 255 258 261 266 270 275 282 285 286 287 287 288 287 286 283 276 267 253 233 209 197 193
224 187 218 250 255 146 157 150 146 140 145 175 169 132 156 147 145 178 206 212 205 209 213 215 219 225 230 238 244 250 254 250 254 260 265 267 272 272 275 278 280 281 281 281 282 279 271 256 234 206 192 189 188 183
202 203 202 223 218 234 151 169 176 174 137 166 147 102 143 128 152 203 211 194 185 196 201 211 219 226 233 237 244 249 250 250 254 257 265 267 265 266 269 271 272 271 273 271 264 256 239 220 205 191 183 180 178 174
219 207 192 219 237 303 188 90 140 176 175 141 145 134 141 165 183 181 119 146 171 189 200 211 220 227 236 241 243 249 252 248 247 253 258 260 260 260 260 262 266 269 264 256 250 235 221 201 186 178 172 165 164 164
344 25 11 311 155 91 323 96 143 173 147 143 125 155 162 161 143 28 47 96 188 195 206 213 220 226 231 236 243 246 247 247 246 244 244 244 245 252 259 259 258 253 243 225 210 196 182 177 169 165 163 160 158 159
4 350 327 239 86 63 46 17 351 9 348 195 128 95 100 65 39 57 59 76 147 197 207 210 215 223 230 235 239 242 245 244 242 236 236 232 244 255 256 243 223 200 186 171 159 160 158 159 156 154 154 155 154 156
326 337 305 24 45 47 25 10 37 41 40 72 97 105 84 80 60 67 71 75 82 79 87 121 192 213 222 229 234 235 238 242 241 240 246 252 251 238 210 196 179 169 164 160 154 151 153 154 152 153 154 155 158 162
318 324 350 42 73 64 48 78 59 60 58 58 78 98 116 124 66 44 47 47 50 55 65 64 64 72 99 150 208 231 238 237 234 236 238 233 219 193 179 170 170 168 161 156 152 152 152 153 154 155 156 158 156 156
313 345 344 28 72 57 75 52 49 59 47 51 38 50 65 67 66 34 22 30 38 41 41 41 43 45 57 76 95 101 149 171 192 201 201 192 177 169 168 163 158 155 153 148 146 147 153 156 155 155 154 153 153 151
307 353 359 7 357 21 16 76 78 87 43 49 41 37 38 61 78 15 18 25 24 22 24 29 34 39 47 62 81 97 129 148 152 155 159 163 162 155 150 149 147 145 143 142 145 148 152 155 154 150 148 149 149 148